[[{"header":{"parameterUnit":"m.s-1","parameterCategory":1,"la1":30.2991,"la2":30.254,"lo1":-89.0895,"lo2":-89.0444,"dy":0.0017,"dx":0.0017,"nx":28,"ny":28,"refTime":"2023-08-30T09:00:00:Z","depth":0,"parameterNumber":2,"parameterNumberName":"U-component_of_WINDS"},"data":[0,0,0,0,0,0,0,0,0,0,0,0,0,0,0,0,0,0,0,0,0,0,0,0,0,0,0,0,0,0,0,0,0,0,0,0,0,0,0,0,0,0,0,0,0,0,0,0,0,0,0,0,0,0,0,0,0,0,1.0067,1.0067,0,1.0129,1.013,1.0131,1.0135,1.0134,1.0133,1.0133,1.02,1.0202,1.0204,0,0,0,0,0,0,0,0,0,0,0,0,0,0.9955,0.9957,1.0067,1.0067,1.0068,1.0129,1.013,1.0131,1.0135,1.0134,1.0133,1.0132,1.0199,1.0202,1.0205,0,0,0,0,0,0,0,0,0,0,0,0,0,1.0009,0.9958,1.0067,1.0077,1.0079,1.0129,1.013,1.0131,1.0135,1.0134,1.0133,1.0132,1.0198,1.0201,1.0205,1.0249,0,0,1.0216,1.0218,0,0,0,0,0,0,0,0,1.0006,1.0013,1.0075,1.0077,1.0079,1.0123,1.0115,1.0171,1.0135,1.0114,1.0133,1.0131,1.0175,1.0181,1.0195,1.0252,1.0255,1.0217,1.0219,1.022,1.0221,0,0,0,0,0,0,0,1.0002,1.0011,1.0092,1.0076,1.0078,1.0081,1.0087,1.0126,1.015,1.0116,1.0116,1.0123,1.0176,1.0191,1.0196,1.0256,1.0217,1.022,1.0222,1.0223,1.0356,1.0357,0,0,0,0,0,0,0.9996,1.0007,1.009,1.0093,1.0039,1.0084,1.0091,1.011,1.0149,1.0154,1.0124,1.0123,1.0186,1.0192,1.0199,1.0255,1.022,1.0224,1.0226,1.0355,1.0356,1.0358,0,0,0,0,0,0,0.9994,1.0003,1.0087,1.0051,1.0061,1.0087,1.0108,1.0112,1.0127,1.0156,1.0161,1.0135,1.0185,1.0194,1.0237,1.0257,1.0225,1.0229,1.0353,1.0355,1.0357,1.0365,0,0,0,0,0,0,0.999,1.0002,1.0018,1.0051,1.0063,1.0123,1.0109,1.0114,1.0133,1.0132,1.0167,1.0172,1.0185,1.0232,1.0241,1.0261,1.0232,1.0351,1.0354,1.0356,1.0363,1.0367,1.0371,0,0,0,0,0,0.9986,1.0018,1.0019,1.0029,1.0083,1.0124,1.0131,1.0144,1.0134,1.0151,1.0171,1.0171,1.0253,1.0236,1.0246,1.0268,1.035,1.0353,1.0356,1.0362,1.0366,1.0371,0,0,0,0,0,0,0.9987,1.0023,1.0024,1.0067,1.0092,1.0124,1.0146,1.0149,1.0178,1.0176,1.0192,1.02,1.0244,1.026,1.024,1.0315,1.0301,1.0306,1.0302,1.0306,1.031,1.0305,1.0235,0,0,0,0,0,0.9993,1.0021,1.0051,1.0086,1.0099,1.012,1.0138,1.0146,1.0174,1.0185,1.0207,1.0234,1.0267,1.0288,1.0319,1.0366,1.0375,1.0387,1.039,1.0393,1.0397,1.0426,1.0432,1.0367,1.0367,1.0367,0,0,1.0004,1.0027,1.0044,1.0087,1.0108,1.0139,1.0129,1.0162,1.0185,1.019,1.0232,1.025,1.0282,1.0328,1.0349,1.0343,1.0418,1.0397,1.0399,1.0402,1.043,1.0436,1.0441,1.0369,1.0369,1.0369,0,0,1.004,1.0059,1.0091,1.0113,1.0144,1.0158,1.0166,1.0199,1.021,1.0253,1.0258,1.0287,1.0341,1.0365,1.0384,1.0431,1.0433,1.0441,1.046,1.0488,1.0493,1.0497,1.0516,1.0522,1.0445,1.0445,1.0445,0,1.005,1.0095,1.0108,1.0141,1.0161,1.0166,1.02,1.0221,1.0261,1.0275,1.0268,1.0338,1.036,1.0412,1.0424,1.0439,1.045,1.0437,1.0491,1.0495,1.05,1.0518,1.0524,1.0446,1.0446,1.0446,1.0446,0,1.0107,1.0138,1.0161,1.0199,1.0222,1.0255,1.0275,1.0296,1.0303,1.0319,1.0364,1.0391,1.0428,1.0441,1.0448,1.0496,1.0491,1.0487,1.0474,1.0507,1.0524,1.053,1.0447,1.0447,1.0447,1.0446,0,0,1.0144,1.019,1.0198,1.0216,1.0253,1.0278,1.0313,1.0349,1.0368,1.0396,1.0427,1.0474,1.0471,1.0493,1.0503,1.0527,1.0565,1.0521,1.0522,1.0529,1.0621,1.0624,1.0631,1.0567,1.0568,1.0569,1.0619,0,1.0184,1.0244,1.0258,1.0311,1.0341,1.0348,1.0379,1.0405,1.0422,1.0451,1.047,1.0504,1.0497,1.051,1.0534,1.0555,1.0584,1.0552,1.0597,1.0599,1.0589,1.064,1.0643,1.0688,1.0625,1.0626,1.0627,0,1.0239,1.0268,1.0324,1.0358,1.0371,1.0398,1.0433,1.0461,1.0492,1.0503,1.0528,1.0536,1.0575,1.056,1.0614,1.0592,1.0612,1.0625,1.0628,1.0632,1.0615,1.0647,1.0702,1.0709,1.0638,1.0637,1.0636,0,1.0261,1.0315,1.0356,1.0371,1.0411,1.043,1.0448,1.0478,1.05,1.0532,1.0546,1.0582,1.0602,1.0631,1.065,1.0637,1.0703,1.0689,1.0714,1.0714,1.0728,1.0727,1.0788,1.074,1.074,1.074,1.0739,0,1.0305,1.0339,1.0366,1.0391,1.043,1.0447,1.0486,1.0504,1.0531,1.0561,1.057,1.0599,1.0621,1.0653,1.0668,1.0712,1.0721,1.0732,1.0736,1.0731,1.073,1.0744,1.0742,1.0741,1.0741,1.0741,1.074,0,1.0337,1.0356,1.0401,1.0436,1.0446,1.0473,1.0504,1.0529,1.0547,1.0585,1.0595,1.0623,1.0661,1.0683,1.0731,1.0741,1.0791,1.0792,1.078,1.0781,1.0806,1.0803,1.0878,1.089,1.0834,1.0834,1.0834,0,1.0363,1.039,1.0428,1.0448,1.0466,1.0499,1.0521,1.054,1.0563,1.0602,1.0623,1.0662,1.0694,1.0756,1.0781,1.0819,1.0823,1.0846,1.0828,1.0824,1.0824,1.0823,1.0826,1.0849,1.085,1.085,1.0851,0,1.0409,1.0418,1.0449,1.0484,1.051,1.0539,1.0568,1.0585,1.0608,1.0634,1.0673,1.0698,1.0748,1.0788,1.0828,1.0849,1.0855,1.0856,1.0864,1.086,1.0852,1.0858,1.0789,1.0854,1.0854,1.0854,1.0854,1.0853,1.0439,1.0464,1.0495,1.053,1.0554,1.0581,1.0607,1.0628,1.066,1.0702,1.0712,1.0753,1.0787,1.0841,1.0863,1.0898,1.0893,1.0905,1.0908,1.091,1.0912,1.0847,1.0905,1.0905,1.0905,1.0905,1.0905,0,1.0486,1.0507,1.0539,1.0579,1.0607,1.061,1.0642,1.0666,1.0703,1.0733,1.0764,1.0811,1.085,1.0879,1.0919,1.0941,1.0945,1.0951,1.095,1.0955,1.0913,1.0902,1.0948,1.0948,1.0948,1.0948,1.0948,1.0948,1.0514,1.0556,1.0569,1.0624,1.0645,1.0685,1.0703,1.073,1.0754,1.0805,1.0837,1.0855,1.0886,1.0929,1.0966,1.0974,1.0989,1.0994,1.1003,1.0962,1.0958,1.0954,1.0944,1.0997,1.0997,1.1043,1.1043,1.1043]},{"header":{"parameterUnit":"m.s-1","parameterCategory":1,"la1":30.2991,"la2":30.254,"lo1":-89.0895,"lo2":-89.0444,"dy":0.0017,"dx":0.0017,"nx":28,"ny":28,"refTime":"2023-08-30T09:00:00:Z","depth":0,"parameterNumber":3,"parameterNumberName":"V-component_of_WINDS"},"data":[0,0,0,0,0,0,0,0,0,0,0,0,0,0,0,0,0,0,0,0,0,0,0,0,0,0,0,0,0,0,0,0,0,0,0,0,0,0,0,0,0,0,0,0,0,0,0,0,0,0,0,0,0,0,0,0,0,0,-4.2321,-4.2322,0,-4.2399,-4.24,-4.2401,-4.2418,-4.2417,-4.2416,-4.2416,-4.249,-4.2492,-4.2495,0,0,0,0,0,0,0,0,0,0,0,0,0,-4.218,-4.2182,-4.2321,-4.2322,-4.2323,-4.2399,-4.24,-4.2401,-4.2418,-4.2417,-4.2416,-4.2416,-4.2489,-4.2492,-4.2495,0,0,0,0,0,0,0,0,0,0,0,0,0,-4.2248,-4.2183,-4.2321,-4.234,-4.2343,-4.2399,-4.24,-4.2401,-4.2418,-4.2417,-4.2416,-4.2415,-4.2488,-4.2492,-4.2495,-4.2535,0,0,-4.2507,-4.2509,0,0,0,0,0,0,0,0,-4.2244,-4.2253,-4.2336,-4.2339,-4.2342,-4.2398,-4.2378,-4.2446,-4.2418,-4.2389,-4.2416,-4.2415,-4.246,-4.2466,-4.2482,-4.2539,-4.2542,-4.2507,-4.2509,-4.2511,-4.2512,0,0,0,0,0,0,0,-4.2239,-4.2249,-4.2352,-4.2338,-4.2341,-4.2343,-4.2352,-4.2391,-4.2428,-4.2392,-4.2393,-4.2402,-4.2461,-4.2478,-4.2484,-4.2543,-4.2507,-4.251,-4.2513,-4.2514,-4.2636,-4.2637,0,0,0,0,0,0,-4.2232,-4.2245,-4.2349,-4.2354,-4.229,-4.2347,-4.2356,-4.2381,-4.2428,-4.2434,-4.2403,-4.2403,-4.2472,-4.2479,-4.2486,-4.2536,-4.2511,-4.2515,-4.2517,-4.2635,-4.2636,-4.2637,0,0,0,0,0,0,-4.2229,-4.2241,-4.2346,-4.23,-4.2314,-4.235,-4.2377,-4.2383,-4.24,-4.2436,-4.2442,-4.2414,-4.2472,-4.2481,-4.2523,-4.2539,-4.2516,-4.252,-4.2634,-4.2636,-4.2637,-4.2635,0,0,0,0,0,0,-4.2225,-4.224,-4.2256,-4.2301,-4.2316,-4.2383,-4.2378,-4.2385,-4.2407,-4.2408,-4.2449,-4.2454,-4.2472,-4.2518,-4.2527,-4.2543,-4.2523,-4.2633,-4.2635,-4.2636,-4.2634,-4.2636,-4.2638,0,0,0,0,0,-4.2219,-4.2251,-4.2257,-4.2269,-4.2338,-4.2384,-4.2393,-4.2414,-4.2409,-4.2425,-4.2448,-4.2453,-4.2536,-4.2522,-4.2533,-4.255,-4.2632,-4.2634,-4.2636,-4.2633,-4.2636,-4.2638,0,0,0,0,0,0,-4.2205,-4.2257,-4.2264,-4.2312,-4.2344,-4.2387,-4.2408,-4.2417,-4.2449,-4.2448,-4.2471,-4.248,-4.2521,-4.254,-4.2524,-4.2591,-4.2583,-4.2588,-4.2577,-4.258,-4.2582,-4.2576,-4.2526,0,0,0,0,0,-4.2208,-4.2243,-4.2286,-4.2324,-4.234,-4.2371,-4.2392,-4.2406,-4.2439,-4.2452,-4.2478,-4.2508,-4.2541,-4.2562,-4.2594,-4.2637,-4.2645,-4.2654,-4.2657,-4.2658,-4.2661,-4.2685,-4.2689,-4.2645,-4.2645,-4.2645,0,0,-4.2213,-4.2246,-4.2266,-4.2322,-4.2348,-4.2382,-4.2382,-4.2418,-4.2442,-4.2456,-4.2498,-4.2519,-4.2554,-4.2597,-4.2617,-4.2614,-4.2676,-4.2661,-4.2662,-4.2664,-4.2688,-4.2692,-4.2695,-4.2646,-4.2646,-4.2646,0,0,-4.224,-4.227,-4.2304,-4.2331,-4.2372,-4.2393,-4.2401,-4.2443,-4.2458,-4.2501,-4.2512,-4.2541,-4.2598,-4.2622,-4.2642,-4.268,-4.2685,-4.2689,-4.27,-4.2723,-4.2726,-4.2729,-4.2742,-4.2746,-4.2692,-4.2692,-4.2693,0,-4.2241,-4.2295,-4.232,-4.2356,-4.2379,-4.2396,-4.243,-4.2454,-4.2502,-4.2517,-4.2514,-4.2586,-4.261,-4.2659,-4.2668,-4.2684,-4.2693,-4.2684,-4.2724,-4.2728,-4.2731,-4.2743,-4.2747,-4.2693,-4.2693,-4.2693,-4.2693,0,-4.2293,-4.233,-4.2352,-4.2401,-4.2427,-4.2462,-4.2491,-4.2514,-4.2526,-4.2547,-4.259,-4.2621,-4.2659,-4.2672,-4.2683,-4.2722,-4.2719,-4.272,-4.2712,-4.2735,-4.2746,-4.2751,-4.2693,-4.2693,-4.2693,-4.2693,0,0,-4.2311,-4.2375,-4.2383,-4.2405,-4.2452,-4.248,-4.2515,-4.2555,-4.2574,-4.2607,-4.2635,-4.2683,-4.2685,-4.2707,-4.2721,-4.2742,-4.2768,-4.274,-4.2741,-4.2743,-4.2812,-4.281,-4.2815,-4.2773,-4.2774,-4.2775,-4.2808,0,-4.2343,-4.2408,-4.2432,-4.2485,-4.2518,-4.2536,-4.2566,-4.2597,-4.2618,-4.2648,-4.267,-4.2703,-4.2703,-4.2716,-4.2738,-4.2761,-4.2782,-4.2759,-4.2798,-4.2799,-4.2787,-4.2821,-4.2819,-4.2849,-4.2813,-4.2814,-4.2815,0,-4.2388,-4.2424,-4.248,-4.2523,-4.2538,-4.2565,-4.2604,-4.2633,-4.2668,-4.2682,-4.2708,-4.2722,-4.2757,-4.2749,-4.2797,-4.2781,-4.2799,-4.2812,-4.2814,-4.2817,-4.2807,-4.2823,-4.286,-4.2863,-4.2822,-4.2821,-4.2821,0,-4.2394,-4.2456,-4.2498,-4.2517,-4.2569,-4.2587,-4.2609,-4.2644,-4.2666,-4.27,-4.2714,-4.2751,-4.277,-4.2797,-4.2819,-4.2812,-4.2866,-4.2859,-4.2876,-4.2875,-4.2885,-4.2884,-4.2923,-4.2899,-4.2899,-4.2899,-4.2899,0,-4.2426,-4.2459,-4.2502,-4.2527,-4.2565,-4.2592,-4.2628,-4.2651,-4.2682,-4.2711,-4.2728,-4.2754,-4.2783,-4.2813,-4.283,-4.2867,-4.2876,-4.2887,-4.289,-4.2884,-4.2883,-4.2895,-4.2893,-4.29,-4.29,-4.29,-4.2899,0,-4.2438,-4.2468,-4.2515,-4.2561,-4.2573,-4.2599,-4.2637,-4.2662,-4.2684,-4.2721,-4.2731,-4.2765,-4.2801,-4.2826,-4.2872,-4.2884,-4.2923,-4.2927,-4.2911,-4.2913,-4.2928,-4.2926,-4.2975,-4.2982,-4.2955,-4.2955,-4.2955,0,-4.2455,-4.2482,-4.2532,-4.2553,-4.2576,-4.2611,-4.2635,-4.2663,-4.2686,-4.2729,-4.2748,-4.2786,-4.2817,-4.2873,-4.2901,-4.2936,-4.294,-4.2955,-4.2945,-4.2938,-4.2939,-4.2937,-4.2939,-4.2956,-4.2956,-4.2956,-4.2956,0,-4.2483,-4.2497,-4.2532,-4.2572,-4.2601,-4.2633,-4.2666,-4.2682,-4.2716,-4.2741,-4.2779,-4.2804,-4.2852,-4.2888,-4.2926,-4.2947,-4.2957,-4.296,-4.2965,-4.2958,-4.2948,-4.2952,-4.2914,-4.2958,-4.2958,-4.2958,-4.2958,-4.2958,-4.2498,-4.2522,-4.2561,-4.2599,-4.2627,-4.2658,-4.2683,-4.271,-4.2743,-4.2785,-4.2799,-4.2838,-4.2873,-4.2925,-4.2947,-4.2976,-4.2975,-4.2984,-4.2985,-4.2987,-4.2986,-4.2944,-4.2983,-4.2983,-4.2983,-4.2983,-4.2983,0,-4.2525,-4.2551,-4.2587,-4.2633,-4.2663,-4.2672,-4.2709,-4.2732,-4.2767,-4.28,-4.2831,-4.2875,-4.2911,-4.2942,-4.2979,-4.2996,-4.3002,-4.3005,-4.3003,-4.3007,-4.2985,-4.2976,-4.3,-4.3,-4.3,-4.3,-4.3,-4.3,-4.2542,-4.2584,-4.2603,-4.2658,-4.2684,-4.2724,-4.2744,-4.2772,-4.2798,-4.2847,-4.2877,-4.2898,-4.293,-4.2969,-4.3002,-4.301,-4.3022,-4.3024,-4.3033,-4.3011,-4.3009,-4.3007,-4.2999,-4.3027,-4.3027,-4.3053,-4.3053,-4.3053]}]]